Location: Saint-Palais-sur-Mer
(45.6429°N, 1.0859°W)
Time: 00:51:28
(UTC+01:00)

Tiros 1 despin weight - Pass Details

Date: 16 February 2026
Orbit: 556 x 593 km, 48.2° (Epoch: 13 March)

Event Time Altitude Azimuth Distance (km) Brightness Sun altitude
Rises 18:00:45 0° 254° (WSW) 2,731 ? 4.4°
Reaches altitude 10° 18:03:00 10° 256° (WSW) 1,836 ? 4.0°
Maximum altitude 18:07:11 81° 342° (NNW) 566 ? 3.3°
Drops below altitude 10° 18:11:24 10° 72° (ENE) 1,839 ? 2.7°
Sets 18:13:39 0° 73° (ENE) 2,738 ? 2.3°
